Weather History for KHFF - September, 2013

Change the Weather History Date:

Sunday, September 15, 2013

  Actual Average Record
Temperature  
Mean Temperature 68 °F -  
Max Temperature 82 °F 79 °F 94 °F (2010)
Min Temperature 55 °F 62 °F 55 °F (2013)
Cooling Degree Days 4    
Growing Degree Days 18 (Base 50)    
Moisture  
Dew Point 59 °F    
Average Humidity 71    
Maximum Humidity 92    
Minimum Humidity 47    
Precipitation  
Precipitation 0.00 in - - ()
Sea Level Pressure  
Sea Level Pressure 30.18 in    
Wind  
Wind Speed 4 mph (ENE)    
Max Wind Speed 9 mph    
Max Gust Speed -    
Visibility 12 miles    
Events      
Averages and records for this station are not official NWS values.
T = Trace of Precipitation, MM = Missing Value Source: NWS Daily Summary

Daily Weather History Graph

Daily Weather History Graph

Search for Another Location

Airport or City:

Trip Planner

Search our weather history database for the weather conditions in past years. The results will help you decide how hot, cold, wet, or windy it might be!

Date:

Astronomy

Sep. 15, 2013 Rise Set
Actual Time 7:01 AM EDT 7:24 PM EDT
Civil Twilight 6:35 AM EDT 7:49 PM EDT
Nautical Twilight 6:05 AM EDT 8:19 PM EDT
Astronomical Twilight 5:35 AM EDT 8:49 PM EDT
Moon 4:44 PM EDT (9/15) 2:45 AM EDT (9/15)
Length of Visible Light 13h 14m
Length of Day
12h 23m
Waxing Gibbous, 82% of the Moon is Illuminated
Sep 15
Waxing Gibbous
Sep 19
Full
Sep 26
Last Quarter
Oct 4
New
Oct 11
First Quarter

Hourly Weather History & Observations

Time (EDT) Temp. Heat Index Dew Point Humidity Pressure Visibility Wind Dir Wind Speed Gust Speed Precip Events Conditions
12:56 AM 56.7 °F - 54.1 °F 91% 30.15 in 12.0 mi Variable 1.2 mph - N/A   Partly Cloudy
1:56 AM 56.7 °F - 54.0 °F 91% 30.16 in 12.0 mi NW 1.2 mph - N/A   Mostly Cloudy
2:56 AM 55.8 °F - 53.6 °F 92% 30.16 in 12.0 mi NNW 3.5 mph - N/A   Scattered Clouds
3:56 AM 57.0 °F - 54.7 °F 92% 30.17 in 12.0 mi NNW 1.2 mph - N/A   Mostly Cloudy
4:56 AM 56.8 °F - 54.3 °F 91% 30.18 in 12.0 mi North 4.6 mph - N/A   Mostly Cloudy
5:56 AM 59.0 °F - 54.9 °F 86% 30.19 in 12.0 mi ENE 2.3 mph - N/A   Mostly Cloudy
6:56 AM 59.0 °F - 55.6 °F 88% 30.20 in 12.0 mi North 3.5 mph - N/A   Mostly Cloudy
7:56 AM 60.6 °F - 56.7 °F 87% 30.22 in 12.0 mi NE 3.5 mph - N/A   Partly Cloudy
8:56 AM 65.5 °F - 57.4 °F 75% 30.23 in 12.0 mi NE 5.8 mph - N/A   Clear
9:56 AM 70.7 °F - 57.7 °F 63% 30.25 in 12.0 mi East 8.1 mph - N/A   Clear
10:56 AM 75.0 °F - 58.5 °F 56% 30.25 in 12.0 mi ESE 9.2 mph - N/A   Clear
11:56 AM 77.7 °F - 59.0 °F 52% 30.23 in 12.0 mi SSE 8.1 mph - N/A   Clear
12:56 PM 78.1 °F - 59.9 °F 53% 30.22 in 12.0 mi ESE 5.8 mph - N/A   Mostly Cloudy
1:56 PM 79.0 °F - 59.9 °F 52% 30.20 in 12.0 mi ENE 3.5 mph - N/A   Scattered Clouds
2:56 PM 81.9 °F 82.3 °F 60.3 °F 48% 30.18 in 12.0 mi ENE 9.2 mph - N/A   Scattered Clouds
3:56 PM 82.2 °F 82.7 °F 60.4 °F 48% 30.16 in 12.0 mi East 6.9 mph - N/A   Mostly Cloudy
4:56 PM 82.6 °F 82.9 °F 60.4 °F 47% 30.14 in 12.0 mi ESE 3.5 mph - N/A   Clear
5:56 PM 81.9 °F 82.2 °F 59.5 °F 47% 30.13 in 12.0 mi East 3.5 mph - N/A   Partly Cloudy
6:56 PM 79.7 °F - 61.0 °F 53% 30.13 in 12.0 mi ESE 5.8 mph - N/A   Clear
7:56 PM 72.5 °F - 62.2 °F 70% 30.13 in 12.0 mi ESE 3.5 mph - N/A   Clear
8:56 PM 68.9 °F - 63.0 °F 81% 30.15 in 12.0 mi Calm Calm - N/A   Clear
9:56 PM 70.3 °F - 64.2 °F 81% 30.16 in 12.0 mi Variable 1.2 mph - N/A   Mostly Cloudy
10:56 PM 69.1 °F - 63.5 °F 82% 30.17 in 12.0 mi SE 4.6 mph - N/A   Mostly Cloudy
11:56 PM 68.5 °F - 64.0 °F 85% 30.16 in 12.0 mi SE 3.5 mph - N/A   Partly Cloudy